Weather History for Madisonville, KY

Change the Weather History Date:

Monday, May 13, 2013

  Actual Average (KOWB) Record (KOWB)
Temperature  
Mean Temperature 12 °C -  
Max Temperature 21 °C 25 °C 32 °C (1956)
Min Temperature 4 °C 12 °C 0 °C (1997)
Degree Days  
Heating Degree Days 10    
Growing Degree Days 4 (Base 50)    
Moisture  
Dew Point 5 °C    
Average Humidity 65    
Maximum Humidity 99    
Minimum Humidity 27    
Precipitation  
Precipitation 0.00 mm - - ()
Sea Level Pressure  
Sea Level Pressure 1023 hPa    
Wind  
Wind Speed 5 km/h (WSW)    
Max Wind Speed 19 km/h    
Max Gust Speed 27 km/h    
Visibility 16 kilometers    
Events      
Averages and records for this station are not official NWS values.
T = Trace of Precipitation, MM = Missing Value Source: NWS Daily Summary

Daily Weather History Graph

Daily Weather History Graph

Search for Another Location

Airport:

Trip Planner

Search our weather history database for the weather conditions in past years. The results will help you decide how hot, cold, wet, or windy it might be!

Date:

Astronomy

May. 13, 2013 Rise Set
Actual Time 5:42 AM CDT 7:50 PM CDT
Civil Twilight 5:13 AM CDT 8:19 PM CDT
Nautical Twilight 4:37 AM CDT 8:54 PM CDT
Astronomical Twilight 3:59 AM CDT 9:33 PM CDT
Moon 8:28 AM CDT (5/13) 10:59 PM CDT (5/13)
Length of Visible Light 15h 06m
Length of Day
14h 07m
Waxing Crescent, 12% of the Moon is Illuminated
May 13
Waxing Crescent
May 17
First Quarter
May 24
Full
May 31
Last Quarter
Jun 8
New

Hourly Weather History & Observations

Time (CDT) Temp. Windchill Dew Point Humidity Pressure Visibility Wind Dir Wind Speed Gust Speed Precip Events Conditions
12:15 AM 7.0 °C - 6.1 °C 94% 1022.2 hPa 16.1 km Calm Calm - N/A   Clear
12:35 AM 7.0 °C 6.2 °C 6.1 °C 94% 1022.2 hPa 16.1 km SW 5.6 km/h / 1.5 m/s - N/A   Clear
12:55 AM 7.0 °C 6.2 °C 6.0 °C 93% 1021.9 hPa 16.1 km WSW 5.6 km/h / 1.5 m/s - N/A   Clear
1:15 AM 6.9 °C - 6.5 °C 97% 1022.2 hPa 16.1 km Calm Calm - N/A   Clear
1:35 AM 6.6 °C 5.7 °C 6.0 °C 96% 1021.9 hPa 16.1 km SW 5.6 km/h / 1.5 m/s - N/A   Clear
1:55 AM 6.4 °C 5.5 °C 6.0 °C 97% 1021.9 hPa 16.1 km SW 5.6 km/h / 1.5 m/s - N/A   Clear
2:15 AM 6.0 °C 5.0 °C 5.5 °C 97% 1021.9 hPa 16.1 km SW 5.6 km/h / 1.5 m/s - N/A   Clear
2:35 AM 6.3 °C 5.4 °C 5.8 °C 97% 1021.9 hPa 16.1 km SW 5.6 km/h / 1.5 m/s - N/A   Clear
2:55 AM 6.0 °C 5.0 °C 5.7 °C 98% 1021.9 hPa 16.1 km SW 5.6 km/h / 1.5 m/s - N/A   Clear
3:15 AM 6.0 °C 5.0 °C 5.8 °C 99% 1022.2 hPa 16.1 km WSW 5.6 km/h / 1.5 m/s - N/A   Clear
3:35 AM 6.0 °C 5.0 °C 5.8 °C 99% 1022.2 hPa 16.1 km WSW 5.6 km/h / 1.5 m/s - N/A   Clear
3:55 AM 6.0 °C 5.0 °C 5.3 °C 95% 1022.2 hPa 16.1 km SW 5.6 km/h / 1.5 m/s - N/A   Clear
4:15 AM 5.6 °C 4.6 °C 5.0 °C 96% 1022.2 hPa 16.1 km SW 5.6 km/h / 1.5 m/s - N/A   Clear
4:35 AM 5.8 °C 4.8 °C 5.0 °C 95% 1022.2 hPa 16.1 km SW 5.6 km/h / 1.5 m/s - N/A   Clear
4:55 AM 5.5 °C 4.5 °C 5.1 °C 97% 1022.6 hPa 16.1 km SW 5.6 km/h / 1.5 m/s - N/A   Clear
5:15 AM 5.0 °C 3.3 °C 4.7 °C 98% 1022.6 hPa 16.1 km SW 7.4 km/h / 2.1 m/s - N/A   Clear
5:35 AM 5.0 °C - 4.7 °C 98% 1022.9 hPa 16.1 km Calm Calm - N/A   Clear
5:55 AM 4.8 °C - 4.6 °C 99% 1022.9 hPa 16.1 km Calm Calm - N/A   Clear
6:15 AM 5.2 °C - 5.1 °C 99% 1022.9 hPa 16.1 km Calm Calm - N/A   Clear
6:35 AM 6.2 °C - 6.0 °C 99% 1023.2 hPa 16.1 km Calm Calm - N/A   Clear
6:55 AM 7.5 °C - 6.5 °C 93% 1023.6 hPa 16.1 km Calm Calm - N/A   Clear
7:15 AM 8.5 °C - 6.9 °C 90% 1023.9 hPa 16.1 km SW 5.6 km/h / 1.5 m/s - N/A   Clear
7:35 AM 9.9 °C - 6.7 °C 81% 1023.9 hPa 16.1 km WSW 5.6 km/h / 1.5 m/s - N/A   Clear
7:55 AM 11.0 °C - 7.2 °C 77% 1024.3 hPa 16.1 km WSW 7.4 km/h / 2.1 m/s - N/A   Clear
8:15 AM 12.1 °C - 7.0 °C 71% 1024.3 hPa 16.1 km SW 5.6 km/h / 1.5 m/s - N/A   Clear
8:35 AM 13.5 °C - 7.0 °C 65% 1024.3 hPa 16.1 km WSW 9.3 km/h / 2.6 m/s - N/A   Clear
8:55 AM 14.2 °C - 5.9 °C 57% 1024.6 hPa 16.1 km West 7.4 km/h / 2.1 m/s - N/A   Clear
9:15 AM 15.1 °C - 5.6 °C 53% 1024.6 hPa 16.1 km West 11.1 km/h / 3.1 m/s - N/A   Clear
9:35 AM 15.7 °C - 4.6 °C 48% 1024.6 hPa 16.1 km West 11.1 km/h / 3.1 m/s - N/A   Clear
9:55 AM 16.0 °C - 3.4 °C 43% 1024.6 hPa 16.1 km West 11.1 km/h / 3.1 m/s - N/A   Clear
10:15 AM 16.5 °C - 2.4 °C 39% 1024.6 hPa 16.1 km West 16.7 km/h / 4.6 m/s - N/A   Clear
10:35 AM 16.6 °C - 2.4 °C 39% 1024.6 hPa 16.1 km NW 5.6 km/h / 1.5 m/s - N/A   Clear
10:55 AM 16.9 °C - 1.6 °C 36% 1024.6 hPa 16.1 km NNW 7.4 km/h / 2.1 m/s - N/A   Clear
11:15 AM 17.0 °C - 1.3 °C 35% 1024.6 hPa 16.1 km Calm Calm - N/A   Clear
11:35 AM 17.8 °C - 3.7 °C 39% 1024.6 hPa 16.1 km West 13.0 km/h / 3.6 m/s - N/A   Clear
11:55 AM 17.8 °C - 2.2 °C 35% 1024.6 hPa 16.1 km WNW 14.8 km/h / 4.1 m/s - N/A   Clear
12:15 PM 18.4 °C - 2.8 °C 35% 1024.6 hPa 16.1 km West 16.7 km/h / 4.6 m/s - N/A   Clear
12:35 PM 18.3 °C - 2.2 °C 34% 1024.3 hPa 16.1 km WNW 14.8 km/h / 4.1 m/s - N/A   Clear
12:55 PM 18.5 °C - 1.7 °C 33% 1023.9 hPa 16.1 km Calm Calm - N/A   Clear
1:15 PM 18.7 °C - 2.4 °C 34% 1023.9 hPa 16.1 km West 11.1 km/h / 3.1 m/s 16.7 km/h / 4.6 m/s N/A   Clear
1:35 PM 19.1 °C - 2.1 °C 32% 1023.6 hPa 16.1 km West 18.5 km/h / 5.1 m/s 27.8 km/h / 7.7 m/s N/A   Clear
1:55 PM 19.1 °C - 2.3 °C 33% 1023.2 hPa 16.1 km WSW 11.1 km/h / 3.1 m/s - N/A   Clear
2:15 PM 19.3 °C - 2.5 °C 33% 1022.9 hPa 16.1 km WSW 9.3 km/h / 2.6 m/s - N/A   Clear
2:35 PM 19.7 °C - 2.5 °C 32% 1022.9 hPa 16.1 km SW 7.4 km/h / 2.1 m/s - N/A   Clear
3:35 PM 20.0 °C - 2.3 °C 31% 1022.2 hPa 16.1 km SSW 5.6 km/h / 1.5 m/s - N/A   Clear
3:55 PM 20.4 °C - 1.7 °C 29% 1021.9 hPa 16.1 km West 11.1 km/h / 3.1 m/s - N/A   Clear
4:15 PM 20.6 °C - 2.5 °C 30% 1021.9 hPa 16.1 km NW 11.1 km/h / 3.1 m/s - N/A   Clear
4:35 PM 20.5 °C - 1.7 °C 29% 1021.6 hPa 16.1 km West 13.0 km/h / 3.6 m/s - N/A   Clear
4:55 PM 20.6 °C - 1.1 °C 27% 1021.2 hPa 16.1 km Calm Calm - N/A   Clear
5:15 PM 20.6 °C - 2.6 °C 30% 1021.2 hPa 16.1 km NW 7.4 km/h / 2.1 m/s - N/A   Clear
5:35 PM 20.7 °C - 2.1 °C 29% 1021.2 hPa 16.1 km North 5.6 km/h / 1.5 m/s - N/A   Clear
5:55 PM 20.2 °C - 4.0 °C 34% 1021.2 hPa 16.1 km NNW 9.3 km/h / 2.6 m/s - N/A   Clear
6:35 PM 20.0 °C - 3.9 °C 35% 1020.9 hPa 16.1 km Calm Calm - N/A   Clear
7:15 PM 19.1 °C - 5.2 °C 40% 1020.9 hPa 16.1 km Calm Calm - N/A   Clear
7:35 PM 18.7 °C - 5.4 °C 42% 1020.9 hPa 16.1 km Calm Calm - N/A   Clear
7:55 PM 17.2 °C - 4.9 °C 44% 1021.2 hPa 16.1 km Calm Calm - N/A   Clear
8:15 PM 16.5 °C - 6.9 °C 53% 1021.2 hPa 16.1 km Calm Calm - N/A   Clear
8:35 PM 14.1 °C - 9.7 °C 75% 1021.6 hPa 16.1 km East 5.6 km/h / 1.5 m/s - N/A   Clear
8:55 PM 13.7 °C - 9.3 °C 75% 1021.6 hPa 16.1 km SSW 5.6 km/h / 1.5 m/s - N/A   Clear
9:15 PM 13.3 °C - 9.2 °C 76% 1021.9 hPa 16.1 km SSE 5.6 km/h / 1.5 m/s - N/A   Clear
9:35 PM 13.0 °C - 9.8 °C 81% 1021.9 hPa 16.1 km Calm Calm - N/A   Clear
9:55 PM 12.8 °C - 10.2 °C 84% 1021.9 hPa 16.1 km Calm Calm - N/A   Clear
10:15 PM 12.2 °C - 9.6 °C 84% 1021.6 hPa 16.1 km SSE 7.4 km/h / 2.1 m/s - N/A   Clear
10:35 PM 12.3 °C - 8.5 °C 78% 1021.6 hPa 16.1 km Calm Calm - N/A   Clear
10:55 PM 12.2 °C - 8.7 °C 79% 1021.6 hPa 16.1 km Calm Calm - N/A   Clear
11:15 PM 11.9 °C - 8.5 °C 80% 1021.2 hPa 16.1 km Calm Calm - N/A   Clear
11:35 PM 11.6 °C - 8.5 °C 81% 1020.9 hPa 16.1 km Calm Calm - N/A   Clear
11:55 PM 10.8 °C - 8.6 °C 86% 1020.9 hPa 16.1 km Calm Calm - N/A   Clear